Overview Statistics Trail Chart Weather Telemetry Raw packets
 

This is the latest recevied weather packets stored in our database for station/object 4S6DRJ-13. If no packets are shown the sender has not sent any weather packets the latest 10 day(s).

<< 536 537 538 539 540 541 542 >>
Time Temp. Humidity Pressure Rain* Wind** Luminosity Snow
1787625147 25.56° C 94% 1011.4 hPa 0.25 mm 0.89 m/s, 144° 289 W/m² -
1787625086 25.56° C 94% 1011.5 hPa 0.25 mm 0.89 m/s, 171° 224 W/m² -
1787625026 25.56° C 94% 1011.5 hPa 0.25 mm 0.45 m/s, 162° 197 W/m² -
1787624964 25.56° C 94% 1011.4 hPa 0.51 mm 0 m/s 160 W/m² -
1787624903 25° C 94% 1011.4 hPa 0.51 mm 0 m/s 149 W/m² -
1787624842 25° C 94% 1011.2 hPa 0.51 mm 0 m/s 147 W/m² -
1787624781 25° C 94% 1011.7 hPa 0.51 mm 0 m/s 146 W/m² -
1787624720 25° C 94% 1011.4 hPa 0.51 mm 0 m/s 146 W/m² -
1787624659 25° C 94% 1011.2 hPa 6.86 mm 0 m/s 144 W/m² -
1787624598 25° C 94% 1011.5 hPa 6.86 mm 0 m/s 135 W/m² -
1787624537 25° C 94% 1011.1 hPa 6.86 mm 0 m/s 146 W/m² -
1787624476 25° C 94% 1011.3 hPa 6.86 mm 0 m/s 140 W/m² -
1787624415 25° C 94% 1011.5 hPa 6.86 mm 0 m/s 135 W/m² -
1787624354 25° C 94% 1011.3 hPa 7.62 mm 0.89 m/s, 184° 133 W/m² -
1787624293 25° C 94% 1011.4 hPa 7.62 mm 1.34 m/s, 226° 133 W/m² -
1787624232 25° C 94% 1011.1 hPa 7.62 mm 0.45 m/s, 230° 133 W/m² -
1787624171 25° C 94% 1011.3 hPa 7.62 mm 0 m/s 133 W/m² -
1787624110 25° C 94% 1011.3 hPa 7.62 mm 0 m/s 132 W/m² -
1787624049 25° C 94% 1011 hPa 8.13 mm 0.45 m/s, 230° 131 W/m² -
1787623988 25° C 94% 1011 hPa 8.13 mm 0.45 m/s, 234° 128 W/m² -
1787623927 25° C 94% 1011.2 hPa 8.13 mm 0.45 m/s, 160° 121 W/m² -
1787623866 25° C 94% 1010.9 hPa 8.13 mm 0.89 m/s, 160° 114 W/m² -
1787623805 25° C 94% 1011 hPa 8.13 mm 0 m/s 107 W/m² -
1787623744 25° C 94% 1011.2 hPa 8.13 mm 0 m/s 101 W/m² -
1787623683 25° C 94% 1011 hPa 8.13 mm 0 m/s 94 W/m² -

* Rain latest hour (hover to see other rain measurements)
** Current wind speed in m/s (hover to see current wind gust speed)